Content
SEND FEEDBACK

Daily
Averages
Monthly
Summary
United States of America

ST. LOUIS, MISSOURI


Home > North America > United States > Missouri
Elevation: 163 meters     Latitude: 38 45N     Longitude: 090 22W

WEATHER
 
SELECT A DAY
Number of Records: 196,318;   Date Range: 1/1/95 - 7/23/14
 
SHARE

PRINT THIS DATA

[ ← Previous Day ]
WEATHER ALMANAC - 9 JANUARY, 2013
[ Next Day → ]
[ °F ]   °C
Weather ElementAverageHighLow
Temperature7.8 °C14.4 °C (12:54 pm)1.1 °C (6:54 am)
Dewpoint1.1 °C5.6 °C (2:54 am)-2.2 °C (4:54 pm)
Humidity65.6 %96 % (6:54 am)37 % (1:54 pm)
Barometer1029.1 hPa1032.2 hPa (6:54 pm)1023.4 hPa (1:54 am)
Wind Speed6.3 km/h13 km/h (2:54 am)
Weather ElementAverage
Visibility16.1 km
Wind DirectionESE (113.5 °)

Weather ElementTotal
Precipitation---
Heating Degree Days10.6 (Base 18.3)
Averaged from 23 records on 9 January, 2013
WEATHER CONDITIONS BREAKOUT
WIND DIRECTION BREAKOUT
WEATHER BY HOUR - 9 JANUARY, 2013
[ °F ]   °C
Local TimeTemperatureDewpointHumidityBarometerVisibilityWind DirectionWind SpeedGust SpeedPrecipitationEventsConditions
1:54 AM8.9 °C4.4 °C74 %1023.4 hPa16.1 kmWSW (250°)9.3 km/h0 mmOvercast
2:54 AM10 °C5.6 °C74 %1023.7 hPa16.1 kmWSW (240°)13 km/h0 mmOvercast
3:54 AM10 °C5.6 °C74 %1024.4 hPa16.1 kmWSW (250°)11.1 km/hOvercast
4:54 AM7.2 °C4.4 °C82 %1025.1 hPa16.1 kmWest (260°)9.3 km/hPartly Cloudy
5:54 AM5 °C3.9 °C93 %1025.7 hPa16.1 kmCalmClear
6:54 AM1.1 °C0.6 °C96 %1027.4 hPa16.1 kmWSW (250°)9.3 km/hScattered Clouds
7:54 AM2.8 °C1.7 °C93 %1028.4 hPa16.1 kmCalmScattered Clouds
8:54 AM6 °C4 °C87 %1028.4 hPa16.1 kmCalmMostly Cloudy
9:54 AM9.4 °C2.2 °C61 %1029.8 hPa16.1 kmWest (260°)5.6 km/hMostly Cloudy
10:54 AM11.1 °C2.8 °C57 %1030.1 hPa16.1 kmCalmMostly Cloudy
11:54 AM13.9 °C1.1 °C42 %1029.5 hPa16.1 kmNorth (10°)11.1 km/hMostly Cloudy
12:54 PM14.4 °C0.6 °C39 %1028.8 hPa16.1 kmNorth (350°)9.3 km/hMostly Cloudy
1:54 PM14.4 °C0 °C37 %1029.5 hPa16.1 kmNNW (330°)11.1 km/hMostly Cloudy
2:54 PM13.9 °C0.6 °C40 %1029.5 hPa16.1 kmCalmMostly Cloudy
3:54 PM12.2 °C0.6 °C45 %1030.1 hPa16.1 kmNE (40°)9.3 km/hMostly Cloudy
4:54 PM10.6 °C-2.2 °C41 %1030.1 hPa16.1 kmNNE (30°)7.4 km/hMostly Cloudy
5:54 PM5.6 °C-2.2 °C58 %1031.2 hPa16.1 kmCalmClear
6:54 PM4.4 °C-2.2 °C63 %1032.2 hPa16.1 kmCalmClear
7:54 PM4.4 °C-1.7 °C65 %1031.8 hPa16.1 kmEast (80°)9.3 km/hClear
8:54 PM5 °C-1.1 °C65 %1032.2 hPa16.1 kmESE (110°)5.6 km/hClear
9:54 PM3.3 °C-1.1 °C73 %1032.2 hPa16.1 kmCalmClear
10:54 PM2.8 °C-1.7 °C73 %1031.5 hPa16.1 kmEast (80°)9.3 km/hClear
11:54 PM2.8 °C-1.1 °C76 %1031.5 hPa16.1 kmENE (70°)13 km/hClear
Hourly data recorded from KSUS, located 0 kilometers away from St. Louis, Missouri







STORIES FROM OUR PARTNERS